FW2547 Weather Reports


Display with metric or nautical units.
time (UTC)temp
F
wind
direction
speed
MPH
gust
MPH
rain 1hr
in
rain 24hr
in
rain mn
in
humidity
%
barometer
mb
20260506184504 71 270 14.0 33.0 0.00 0.00 0.00 23 1011.1
20260506183000 71 271 10.0 26.0 0.00 0.00 0.00 23 1011.1
20260506181559 70 294 15.0 22.0 0.00 0.00 0.00 22 1011.2
20260506180105 70 304 19.0 25.0 0.00 0.00 0.00 24 1011.3
20260506174556 70 254 16.0 26.0 0.00 0.00 0.00 25 1011.4
20260506173057 69 286 14.0 24.0 0.00 0.00 0.00 25 1011.6
20260506171551 69 293 10.0 22.0 0.00 0.00 0.00 29 1011.5
20260506170057 68 286 12.0 24.0 0.00 0.00 0.00 30 1011.4
20260506164541 67 261 12.0 22.0 0.00 0.00 0.00 32 1011.5
20260506163056 67 287 14.0 20.0 0.00 0.00 0.00 33 1011.5
20260506161534 67 268 8.0 20.0 0.00 0.00 0.00 33 1011.5
20260506160031 66 313 11.0 20.0 0.00 0.00 0.00 34 1011.8
20260506154526 65 302 8.0 18.0 0.00 0.00 0.00 35 1011.7
20260506153021 65 329 9.0 15.0 0.00 0.00 0.00 35 1011.8
20260506151516 64 340 6.0 17.0 0.00 0.00 0.00 36 1011.8
20260506150012 63 293 8.0 14.0 0.00 0.00 0.00 37 1011.7
20260506144508 62 283 8.0 11.0 0.00 0.00 0.00 38 1011.9
20260506143004 62 300 7.0 11.0 0.00 0.00 0.00 39 1011.8
20260506141559 61 302 6.0 11.0 0.00 0.00 0.00 40 1011.8
20260506140058 60 303 7.0 12.0 0.00 0.00 0.00 41 1011.7
20260506134550 60 265 8.0 12.0 0.00 0.00 0.00 42 1011.6
20260506133045 59 295 9.0 12.0 0.00 0.00 0.00 42 1011.4
20260506131541 59 292 6.0 10.0 0.00 0.00 0.00 43 1011.4
20260506130037 58 316 5.0 10.0 0.00 0.00 0.00 43 1011.1
20260506124532 58 306 6.0 10.0 0.00 0.00 0.00 43 1010.9
20260506123033 58 307 6.0 9.0 0.00 0.00 0.00 43 1010.6
20260506121525 58 261 4.0 8.0 0.00 0.00 0.00 43 1010.4
20260506120023 59 259 4.0 8.0 0.00 0.00 0.00 41 1010.3
20260506114519 59 281 5.0 9.0 0.00 0.00 0.00 41 1010.2
20260506113016 60 282 7.0 11.0 0.00 0.00 0.00 40 1010.0
20260506111514 60 300 7.0 11.0 0.00 0.00 0.00 40 1009.7
20260506110010 60 279 8.0 12.0 0.00 0.00 0.00 39 1009.4
20260506104508 61 290 7.0 11.0 0.00 0.00 0.00 39 1009.3
20260506103005 61 291 8.0 11.0 0.00 0.00 0.00 38 1009.2
20260506101506 61 287 7.0 12.0 0.00 0.00 0.00 37 1009.1
20260506100059 62 300 9.0 12.0 0.00 0.00 0.00 36 1009.0
20260506094622 63 297 5.0 10.0 0.00 0.00 0.00 36 1009.0
20260506093056 63 309 8.0 12.0 0.00 0.00 0.00 35 1008.9
20260506091552 64 305 9.0 15.0 0.00 0.00 0.00 34 1008.6
20260506090047 64 300 8.0 14.0 0.00 0.00 0.00 32 1008.4
20260506084547 65 294 8.0 13.0 0.00 0.00 0.00 31 1008.2
20260506083043 65 295 10.0 16.0 0.00 0.00 0.00 29 1008.2
20260506081541 66 289 8.0 16.0 0.00 0.00 0.00 28 1008.1
20260506073042 67 286 11.0 18.0 0.00 0.00 0.00 26 1007.9
20260506071534 68 277 13.0 18.0 0.00 0.00 0.00 26 1007.8
20260506061528 71 279 18.0 30.0 0.00 0.00 0.00 22 1007.6
20260506044513 72 285 18.0 30.0 0.00 0.00 0.00 20 1007.0
20260506043012 72 283 16.0 28.0 0.00 0.00 0.00 20 1006.8
20260506041512 72 274 14.0 21.0 0.00 0.00 0.00 19 1006.8
20260506040032 73 271 16.0 21.0 0.00 0.00 0.00 18 1006.6
20260506034510 73 294 13.0 22.0 0.00 0.00 0.00 17 1006.3
20260506033009 74 292 14.0 26.0 0.00 0.00 0.00 17 1006.1
20260506031521 74 288 13.0 23.0 0.00 0.00 0.00 18 1005.6
20260506030008 75 259 17.0 28.0 0.00 0.00 0.00 16 1005.3
20260506024516 75 266 18.0 29.0 0.00 0.00 0.00 17 1005.1
20260506023006 76 240 19.0 27.0 0.00 0.00 0.00 19 1004.9
20260506021506 76 221 12.0 26.0 0.00 0.00 0.00 21 1004.6
20260506020003 76 269 10.0 20.0 0.00 0.00 0.00 21 1004.5
20260506014503 76 266 14.0 27.0 0.00 0.00 0.00 19 1004.4
20260506013002 77 269 19.0 30.0 0.00 0.00 0.00 19 1004.2
20260506011502 77 268 20.0 29.0 0.00 0.00 0.00 20 1004.2
20260506010101 77 271 17.0 29.0 0.00 0.00 0.00 19 1004.2
20260506004600 77 236 17.0 32.0 0.00 0.00 0.00 19 1004.0
20260506003059 78 261 17.0 32.0 0.00 0.00 0.00 18 1003.8
20260506001558 78 287 18.0 34.0 0.00 0.00 0.00 19 1003.9
20260506000101 78 300 16.0 30.0 0.00 0.00 0.00 22 1003.8
20260505234603 78 291 19.0 30.0 0.00 0.00 0.00 23 1003.8
20260505233108 77 264 15.0 23.0 0.00 0.00 0.00 27 1003.7
20260505231553 77 302 18.0 23.0 0.00 0.00 0.00 29 1003.8
20260505230043 76 309 12.0 26.0 0.00 0.00 0.00 31 1003.9
20260505224541 76 268 16.0 25.0 0.00 0.00 0.00 31 1004.3
20260505223049 76 275 19.0 27.0 0.00 0.00 0.00 32 1004.5
20260505221539 76 294 19.0 29.0 0.00 0.00 0.00 32 1004.7
20260505220041 76 244 19.0 29.0 0.00 0.00 0.00 31 1004.7
20260505214541 75 295 13.0 28.0 0.00 0.00 0.00 33 1004.7
20260505213033 75 296 13.0 25.0 0.00 0.00 0.00 33 1005.1
20260505211531 75 306 16.0 22.0 0.00 0.00 0.00 33 1005.5
20260505210030 75 304 11.0 21.0 0.00 0.00 0.00 32 1005.8
20260505204534 75 279 14.0 24.0 0.00 0.00 0.00 33 1006.1
20260505203031 74 296 12.0 22.0 0.00 0.00 0.00 34 1006.1
20260505201528 74 245 12.0 25.0 0.00 0.00 0.00 34 1006.4
20260505200038 74 302 10.0 23.0 0.00 0.00 0.00 35 1006.4
20260505194527 73 306 16.0 23.0 0.00 0.00 0.00 36 1006.6
20260505193026 74 292 14.0 29.0 0.00 0.00 0.00 34 1007.0
20260505191526 74 259 14.0 32.0 0.00 0.00 0.00 33 1007.2
20260505190034 73 308 21.0 31.0 0.00 0.00 0.00 33 1007.2